Hope, British Columbia

8:22 AM PDT on May 23, 2017 (GMT -0700)
Hope

Weather History for CYHE - April, 2013

Change the Weather History Date:

Thursday, April 11, 2013

  Actual Average Record
Temperature  
Mean Temperature 46 °F -  
Max Temperature 54 °F 61 °F 78 °F (2004)
Min Temperature 39 °F 42 °F 33 °F (1999)
Degree Days  
Heating Degree Days 18    
Moisture  
Dew Point 39 °F    
Average Humidity 76    
Maximum Humidity 93    
Minimum Humidity 37    
Precipitation  
Precipitation 0.24 in 0.15 in - ()
Sea Level Pressure  
Sea Level Pressure 30.19 in    
Wind  
Wind Speed 11 mph ()    
Max Wind Speed 18 mph    
Max Gust Speed 28 mph    
Visibility 7.4 miles    
Events Rain    
Averages and records for this station are not official NWS values.
T = Trace of Precipitation, MM = Missing Value Source: Averaged Metar Reports

Daily Weather History Graph

Daily Weather History Graph

Search for Another Location

Airport or City:

Trip Planner

Search our weather history database for the weather conditions in past years. The results will help you decide how hot, cold, wet, or windy it might be!

Date:

Astronomy

Apr. 11, 2013 Rise Set
Actual Time 6:21 AM PDT 7:53 PM PDT
Civil Twilight 5:48 AM PDT 8:26 PM PDT
Nautical Twilight 5:07 AM PDT 9:07 PM PDT
Astronomical Twilight 4:23 AM PDT 9:51 PM PDT
Moon 6:48 AM PDT (4/11) 9:43 PM PDT (4/11)
Length of Visible Light 14h 38m
Length of Day
13h 31m
New Moon, 2% of the Moon is Illuminated
Apr 11
New Moon
Apr 18
First Quarter
Apr 25
Full
May 2
Last Quarter
May 9
New

Hourly Weather History & Observations

Time (PDT) Temp. Windchill Dew Point Humidity Pressure Visibility Wind Dir Wind Speed Gust Speed Precip Events Conditions
12:00 AM 46.4 °F 41.1 °F 42.8 °F 87% 30.15 in 6.0 mi West 11.5 mph 18.4 mph N/A Rain Light Rain
12:26 AM 46.4 °F 41.1 °F 42.8 °F 87% 30.15 in 5.0 mi West 11.5 mph 19.6 mph N/A Rain Light Rain
12:49 AM 46.4 °F 40.1 °F 42.8 °F 87% 30.15 in 6.0 mi West 15.0 mph 21.9 mph N/A Rain Light Rain
12:57 AM 46.4 °F 40.4 °F 42.8 °F 87% 30.15 in 5.0 mi WNW 13.8 mph 23.0 mph N/A Rain Rain
1:00 AM 46.4 °F 40.1 °F 42.8 °F 87% 30.15 in 4.0 mi WNW 15.0 mph 23.0 mph N/A Rain Rain
2:00 AM 45 °F - 43 °F 92% 30.16 in - West 13.8 mph - -  
2:00 AM 44.6 °F 37.8 °F 42.8 °F 93% 30.15 in 3.0 mi WNW 15.0 mph 25.3 mph N/A Rain Rain
2:17 AM 44.6 °F 38.1 °F 42.8 °F 93% 30.15 in 6.0 mi WNW 13.8 mph 26.5 mph N/A Rain Light Rain
2:23 AM 44.6 °F 38.1 °F 42.8 °F 93% 30.15 in 5.0 mi WNW 13.8 mph 24.2 mph N/A Rain Light Rain
3:00 AM 44.6 °F 36.9 °F 42.8 °F 93% 30.15 in 3.0 mi WNW 18.4 mph 26.5 mph N/A Rain Light Rain
3:14 AM 44.6 °F 38.8 °F 41.0 °F 87% 30.15 in 6.0 mi WNW 11.5 mph 25.3 mph N/A Rain Light Rain
3:20 AM 44.6 °F 37.2 °F 41.0 °F 87% 30.15 in 5.0 mi WNW 17.3 mph 26.5 mph N/A Rain Light Rain
3:34 AM 44.6 °F 38.1 °F 41.0 °F 87% 30.15 in 6.0 mi West 13.8 mph 27.6 mph N/A Rain Light Rain
3:49 AM 44.6 °F 38.4 °F 41.0 °F 87% 30.16 in 5.0 mi NW 12.7 mph 20.7 mph N/A Rain Light Rain
3:54 AM 44.6 °F 38.1 °F 41.0 °F 87% 30.16 in 6.0 mi WNW 13.8 mph 25.3 mph N/A Rain Light Rain
3:57 AM 44.6 °F 39.7 °F 41.0 °F 87% 30.17 in 5.0 mi WNW 9.2 mph 25.3 mph N/A Rain Light Rain
3:59 AM 44.6 °F 38.4 °F 41.0 °F 87% 30.17 in 6.0 mi WNW 12.7 mph 25.3 mph N/A Rain Light Rain
4:00 AM 44.6 °F 39.2 °F 41.0 °F 87% 30.17 in 6.0 mi WNW 10.4 mph 25.3 mph N/A Rain Light Rain
4:19 AM 44.6 °F 38.4 °F 41.0 °F 87% 30.17 in 5.0 mi WNW 12.7 mph 27.6 mph N/A Rain Light Rain
4:26 AM 44.6 °F 38.4 °F 41.0 °F 87% 30.17 in 6.0 mi WNW 12.7 mph 27.6 mph N/A Rain Light Rain
5:00 AM 45 °F - 42 °F 83% 30.17 in - West 12.7 mph - -  
5:00 AM 44.6 °F 38.4 °F 41.0 °F 87% 30.17 in 9.0 mi WNW 12.7 mph 20.7 mph N/A Rain Light Rain
5:59 AM 46.4 °F 41.5 °F 39.2 °F 76% 30.19 in 9.0 mi WNW 10.4 mph 21.9 mph N/A   Overcast
6:00 AM 46.4 °F 41.1 °F 39.2 °F 76% 30.18 in 9.0 mi WNW 11.5 mph 21.9 mph N/A   Overcast
6:51 AM 44.6 °F 38.8 °F 39.2 °F 81% 30.20 in 9.0 mi WNW 11.5 mph 19.6 mph N/A Rain Light Rain
7:00 AM 46.4 °F 40.7 °F 39.2 °F 76% 30.20 in 9.0 mi WNW 12.7 mph 23.0 mph N/A Rain Light Rain
7:02 AM 44.6 °F 39.2 °F 39.2 °F 81% 30.20 in 9.0 mi WNW 10.4 mph 23.0 mph N/A   Overcast
7:11 AM 46.4 °F 41.1 °F 39.2 °F 76% 30.20 in 9.0 mi WNW 11.5 mph 20.7 mph N/A Rain Light Rain
7:32 AM 46.4 °F 41.1 °F 39.2 °F 76% 30.21 in 9.0 mi WNW 11.5 mph 24.2 mph N/A   Overcast
8:00 AM 46 °F - 40 °F 74% 30.22 in - West 11.5 mph - -  
8:00 AM 46.4 °F 40.7 °F 39.2 °F 76% 30.22 in 9.0 mi WNW 12.7 mph 19.6 mph N/A   Overcast
8:04 AM 46.4 °F 40.4 °F 39.2 °F 76% 30.22 in 9.0 mi West 13.8 mph 20.7 mph N/A Rain Light Rain
9:04 AM 46.4 °F 40.4 °F 39.2 °F 76% 30.22 in 9.0 mi WNW 13.8 mph 25.3 mph N/A   Overcast
10:00 AM 48.2 °F - 39.2 °F 71% 30.23 in 9.0 mi WNW 11.5 mph 20.7 mph N/A   Mostly Cloudy
10:09 AM 48.2 °F - 37.4 °F 66% 30.24 in 9.0 mi WNW 10.4 mph 18.4 mph N/A Rain Light Rain
10:24 AM 48.2 °F - 39.2 °F 71% 30.23 in 9.0 mi NW 10.4 mph 21.9 mph N/A   Overcast
11:00 AM 48 °F - 38 °F 60% 30.26 in - West 13.8 mph - -  
11:00 AM 48.2 °F - 37.4 °F 66% 30.26 in 9.0 mi WNW 15.0 mph 26.5 mph N/A   Overcast
12:00 PM 50.0 °F - 39.2 °F 66% 30.25 in 9.0 mi West 13.8 mph - N/A   Overcast
1:00 PM 53.6 °F - 39.2 °F 58% 30.23 in 9.0 mi WNW 12.7 mph 19.6 mph N/A   Mostly Cloudy
2:00 PM 52 °F - 36 °F 42% 30.23 in - West 11.5 mph - -  
2:00 PM 51.8 °F - 35.6 °F 54% 30.22 in 9.0 mi WNW 12.7 mph 21.9 mph N/A   Overcast
3:00 PM 53.6 °F - 35.6 °F 51% 30.22 in 9.0 mi West 11.5 mph 20.7 mph N/A   Mostly Cloudy
4:00 PM 55.4 °F - 35.6 °F 47% 30.22 in 9.0 mi West 16.1 mph 23.0 mph N/A   Mostly Cloudy
5:00 PM 53 °F - 34 °F 37% 30.23 in - West 10.4 mph - -  
5:00 PM 53.6 °F - 33.8 °F 47% 30.23 in 9.0 mi West 11.5 mph 17.3 mph N/A   Overcast
6:00 PM 53.6 °F - 32.0 °F 44% 30.21 in 9.0 mi West 3.5 mph - N/A   Clear
7:00 PM 48.2 °F - 35.6 °F 62% 30.21 in 9.0 mi SSW 6.9 mph - N/A   Mostly Cloudy
8:00 PM 46 °F - 39 °F 67% 30.21 in - SSW 1.2 mph - -  
8:00 PM 46.4 °F - 37.4 °F 71% 30.22 in 9.0 mi Calm Calm - N/A   Mostly Cloudy
9:00 PM 42.8 °F - 37.4 °F 81% 30.22 in 9.0 mi Variable 2.3 mph - N/A   Clear
10:00 PM 39.2 °F - 35.6 °F 87% 30.22 in 9.0 mi Calm Calm - N/A   Clear
11:00 PM 39 °F - 37 °F 90% 30.22 in - East 3.5 mph - -  
11:00 PM 39.2 °F 37.0 °F 37.4 °F 93% 30.22 in 9.0 mi East 3.5 mph - N/A   Mostly Cloudy